| time (UTC) | temp F | wind direction | speed knots | gust knots | rain 1hr in | rain 24hr in | rain mn in | humidity % | barometer mb |
| 20260503224611 | 99 | 190 | 4.3 | 10.4 | 0.00 | 0.00 | 0.00 | 24 | 1006.6 |
| 20260503224504 | 99 | 190 | 3.5 | 10.4 | 0.00 | 0.00 | 0.00 | 24 | 1006.6 |
| 20260503224004 | 99 | 190 | 6.1 | 10.4 | 0.00 | 0.00 | 0.00 | 24 | 1006.7 |
| 20260503223505 | 100 | 190 | 4.3 | 7.8 | 0.00 | 0.00 | 0.00 | 24 | 1006.6 |
| 20260503223100 | 100 | 190 | 0.0 | 7.0 | 0.00 | 0.00 | 0.00 | 23 | 1006.7 |
| 20260503223002 | 99 | 190 | 0.0 | 5.2 | 0.00 | 0.00 | 0.00 | 24 | 1006.8 |
| 20260503222502 | 98 | 190 | 0.0 | 7.0 | 0.00 | 0.00 | 0.00 | 25 | 1006.8 |
| 20260503222001 | 99 | 190 | 1.7 | 9.6 | 0.00 | 0.00 | 0.00 | 25 | 1006.8 |
| 20260503221606 | 99 | 190 | 3.5 | 9.6 | 0.00 | 0.00 | 0.00 | 24 | 1006.8 |
| 20260503221501 | 99 | 190 | 3.5 | 9.6 | 0.00 | 0.00 | 0.00 | 25 | 1006.9 |
| 20260503221002 | 99 | 190 | 0.9 | 9.6 | 0.00 | 0.00 | 0.00 | 25 | 1006.9 |
| 20260503220602 | 99 | 190 | 0.9 | 9.6 | 0.00 | 0.00 | 0.00 | 25 | 1006.9 |
| 20260503220100 | 99 | 190 | 1.7 | 6.1 | 0.00 | 0.00 | 0.00 | 25 | 1007.0 |
| 20260503220058 | 99 | 190 | 1.7 | 6.1 | 0.00 | 0.00 | 0.00 | 25 | 1006.8 |
| 20260503215600 | 99 | 190 | 2.6 | 5.2 | 0.00 | 0.00 | 0.00 | 26 | 1007.0 |
| 20260503215059 | 99 | 190 | 0.0 | 7.8 | 0.00 | 0.00 | 0.00 | 26 | 1007.1 |
| 20260503214559 | 99 | 190 | 2.6 | 7.8 | 0.00 | 0.00 | 0.00 | 25 | 1007.1 |
| 20260503214057 | 100 | 190 | 0.0 | 5.2 | 0.00 | 0.00 | 0.00 | 26 | 1007.2 |
| 20260503213555 | 99 | 190 | 0.9 | 5.2 | 0.00 | 0.00 | 0.00 | 26 | 1007.2 |
| 20260503213102 | 99 | 190 | 2.6 | 4.3 | 0.00 | 0.00 | 0.00 | 26 | 1007.1 |
| 20260503213057 | 99 | 190 | 1.7 | 4.3 | 0.00 | 0.00 | 0.00 | 26 | 1007.3 |
| 20260503212554 | 99 | 190 | 0.9 | 3.5 | 0.00 | 0.00 | 0.00 | 26 | 1007.5 |
| 20260503212051 | 98 | 190 | 0.0 | 7.0 | 0.00 | 0.00 | 0.00 | 27 | 1007.5 |
| 20260503211604 | 98 | 190 | 3.5 | 7.8 | 0.00 | 0.00 | 0.00 | 27 | 1007.7 |
| 20260503211600 | 98 | 190 | 2.6 | 7.8 | 0.00 | 0.00 | 0.00 | 26 | 1007.5 |
| 20260503211050 | 98 | 190 | 0.9 | 7.0 | 0.00 | 0.00 | 0.00 | 27 | 1007.7 |
| 20260503210549 | 98 | 190 | 0.9 | 9.6 | 0.00 | 0.00 | 0.00 | 27 | 1007.9 |
| 20260503210058 | 98 | 190 | 1.7 | 9.6 | 0.00 | 0.00 | 0.00 | 27 | 1007.8 |
| 20260503210048 | 98 | 190 | 0.0 | 9.6 | 0.00 | 0.00 | 0.00 | 27 | 1008.0 |
| 20260503205546 | 98 | 190 | 0.9 | 7.8 | 0.00 | 0.00 | 0.00 | 28 | 1008.0 |
| 20260503205045 | 97 | 190 | 1.7 | 7.8 | 0.00 | 0.00 | 0.00 | 28 | 1008.2 |
| 20260503204620 | 97 | 0 | 0.9 | 6.1 | 0.00 | 0.00 | 0.00 | 28 | 1008.2 |
| 20260503204545 | 97 | 190 | 0.9 | 6.1 | 0.00 | 0.00 | 0.00 | 28 | 1008.3 |
| 20260503204044 | 98 | 190 | 1.7 | 6.1 | 0.00 | 0.00 | 0.00 | 28 | 1008.5 |
| 20260503203541 | 97 | 190 | 0.0 | 7.8 | 0.00 | 0.00 | 0.00 | 29 | 1008.6 |
| 20260503203102 | 97 | 190 | 3.5 | 7.8 | 0.00 | 0.00 | 0.00 | 28 | 1008.7 |
| 20260503203057 | 97 | 190 | 1.7 | 7.8 | 0.00 | 0.00 | 0.00 | 28 | 1008.9 |
| 20260503202542 | 98 | 190 | 0.9 | 3.5 | 0.00 | 0.00 | 0.00 | 28 | 1009.0 |
| 20260503202038 | 97 | 190 | 0.0 | 6.1 | 0.00 | 0.00 | 0.00 | 29 | 1009.1 |
| 20260503201559 | 97 | 190 | 1.7 | 4.3 | 0.00 | 0.00 | 0.00 | 28 | 1008.8 |
| 20260503201538 | 97 | 190 | 1.7 | 4.3 | 0.00 | 0.00 | 0.00 | 29 | 1009.1 |
| 20260503201034 | 97 | 190 | 0.0 | 5.2 | 0.00 | 0.00 | 0.00 | 29 | 1009.2 |
| 20260503200533 | 97 | 190 | 0.9 | 5.2 | 0.00 | 0.00 | 0.00 | 29 | 1009.4 |
| 20260503200100 | 96 | 0 | 1.7 | 6.1 | 0.00 | 0.00 | 0.00 | 29 | 1009.2 |
| 20260503200035 | 96 | 190 | 0.9 | 4.3 | 0.00 | 0.00 | 0.00 | 29 | 1009.5 |
| 20260503195531 | 96 | 190 | 0.9 | 6.1 | 0.00 | 0.00 | 0.00 | 29 | 1009.6 |
| 20260503195030 | 96 | 190 | 0.9 | 7.0 | 0.00 | 0.00 | 0.00 | 29 | 1009.8 |
| 20260503194609 | 96 | 190 | 3.5 | 7.0 | 0.00 | 0.00 | 0.00 | 29 | 1009.6 |
| 20260503194529 | 96 | 190 | 3.5 | 7.0 | 0.00 | 0.00 | 0.00 | 29 | 1010.0 |
| 20260503194028 | 96 | 190 | 0.0 | 7.8 | 0.00 | 0.00 | 0.00 | 30 | 1010.1 |
| 20260503193527 | 96 | 190 | 2.6 | 7.8 | 0.00 | 0.00 | 0.00 | 30 | 1010.2 |
| 20260503193118 | 96 | 190 | 1.7 | 7.8 | 0.00 | 0.00 | 0.00 | 30 | 1010.0 |
| 20260503193026 | 95 | 190 | 0.9 | 7.8 | 0.00 | 0.00 | 0.00 | 30 | 1010.3 |
| 20260503192525 | 96 | 190 | 2.6 | 6.1 | 0.00 | 0.00 | 0.00 | 30 | 1010.4 |
| 20260503192023 | 95 | 190 | 0.9 | 5.2 | 0.00 | 0.00 | 0.00 | 31 | 1010.5 |
| 20260503191616 | 95 | 0 | 0.9 | 7.8 | 0.00 | 0.00 | 0.00 | 30 | 1010.5 |
| 20260503191521 | 95 | 190 | 0.9 | 7.8 | 0.00 | 0.00 | 0.00 | 31 | 1010.6 |
| 20260503191020 | 95 | 190 | 1.7 | 7.8 | 0.00 | 0.00 | 0.00 | 30 | 1010.8 |
| 20260503190524 | 95 | 190 | 2.6 | 6.1 | 0.00 | 0.00 | 0.00 | 31 | 1010.9 |
| 20260503190058 | 95 | 0 | 0.9 | 5.2 | 0.00 | 0.00 | 0.00 | 31 | 1010.7 |
| 20260503190023 | 95 | 190 | 0.0 | 4.3 | 0.00 | 0.00 | 0.00 | 31 | 1010.9 |
| 20260503185517 | 95 | 190 | 0.9 | 7.0 | 0.00 | 0.00 | 0.00 | 31 | 1011.1 |
| 20260503185016 | 94 | 190 | 1.7 | 8.7 | 0.00 | 0.00 | 0.00 | 32 | 1011.2 |
| 20260503184612 | 94 | 190 | 1.7 | 7.0 | 0.00 | 0.00 | 0.00 | 32 | 1011.1 |
| 20260503184515 | 94 | 190 | 2.6 | 7.0 | 0.00 | 0.00 | 0.00 | 32 | 1011.3 |
| 20260503184015 | 93 | 190 | 0.0 | 4.3 | 0.00 | 0.00 | 0.00 | 32 | 1011.4 |
| 20260503183514 | 94 | 190 | 0.9 | 7.8 | 0.00 | 0.00 | 0.00 | 32 | 1011.6 |
| 20260503183101 | 94 | 0 | 2.6 | 8.7 | 0.00 | 0.00 | 0.00 | 32 | 1011.4 |
| 20260503183012 | 93 | 190 | 1.7 | 8.7 | 0.00 | 0.00 | 0.00 | 33 | 1011.8 |
| 20260503182515 | 94 | 190 | 3.5 | 8.7 | 0.00 | 0.00 | 0.00 | 32 | 1011.9 |
| 20260503182010 | 94 | 190 | 3.5 | 7.0 | 0.00 | 0.00 | 0.00 | 33 | 1011.9 |
| 20260503181559 | 94 | 190 | 0.9 | 6.1 | 0.00 | 0.00 | 0.00 | 32 | 1011.6 |
| 20260503181509 | 94 | 190 | 0.9 | 6.1 | 0.00 | 0.00 | 0.00 | 33 | 1012.0 |
| 20260503181010 | 93 | 190 | 2.6 | 6.1 | 0.00 | 0.00 | 0.00 | 33 | 1012.2 |
| 20260503180508 | 93 | 190 | 1.7 | 6.1 | 0.00 | 0.00 | 0.00 | 34 | 1012.2 |
| 20260503180016 | 92 | 190 | 1.7 | 9.6 | 0.00 | 0.00 | 0.00 | 35 | 1012.3 |
| 20260503175506 | 93 | 190 | 3.5 | 9.6 | 0.00 | 0.00 | 0.00 | 34 | 1012.3 |
| 20260503175005 | 93 | 190 | 0.0 | 7.0 | 0.00 | 0.00 | 0.00 | 35 | 1012.3 |
| 20260503174604 | 92 | 190 | 2.6 | 7.0 | 0.00 | 0.00 | 0.00 | 35 | 1012.1 |
| 20260503174513 | 92 | 190 | 1.7 | 7.0 | 0.00 | 0.00 | 0.00 | 35 | 1012.5 |
| 20260503174007 | 92 | 190 | 0.0 | 5.2 | 0.00 | 0.00 | 0.00 | 36 | 1012.6 |
| 20260503173502 | 92 | 190 | 0.9 | 6.1 | 0.00 | 0.00 | 0.00 | 36 | 1012.8 |
| 20260503173105 | 92 | 190 | 1.7 | 7.8 | 0.00 | 0.00 | 0.00 | 36 | 1012.5 |
| 20260503173001 | 91 | 190 | 1.7 | 7.8 | 0.00 | 0.00 | 0.00 | 37 | 1012.9 |
| 20260503172600 | 91 | 190 | 0.9 | 7.8 | 0.00 | 0.00 | 0.00 | 36 | 1013.0 |
| 20260503172100 | 91 | 190 | 3.5 | 9.6 | 0.00 | 0.00 | 0.00 | 37 | 1013.1 |
| 20260503171601 | 91 | 190 | 0.0 | 5.2 | 0.00 | 0.00 | 0.00 | 37 | 1013.1 |
| 20260503171557 | 91 | 190 | 0.9 | 6.1 | 0.00 | 0.00 | 0.00 | 36 | 1012.8 |
| 20260503171058 | 91 | 190 | 0.9 | 6.1 | 0.00 | 0.00 | 0.00 | 37 | 1013.3 |
| 20260503170558 | 90 | 190 | 0.0 | 5.2 | 0.00 | 0.00 | 0.00 | 37 | 1013.5 |
| 20260503170117 | 91 | 190 | 0.9 | 7.0 | 0.00 | 0.00 | 0.00 | 37 | 1013.1 |
| 20260503160108 | 88 | 190 | 0.9 | 9.6 | 0.00 | 0.00 | 0.00 | 39 | 1014.0 |
| 20260503150536 | 84 | 190 | 0.0 | 0.9 | 0.00 | 0.00 | 0.00 | 32 | 1014.8 |
| 20260503131017 | 72 | 190 | 0.0 | 0.9 | 0.00 | 0.00 | 0.00 | 47 | 1014.2 |
| 20260503130519 | 72 | 190 | 0.0 | 1.7 | 0.00 | 0.00 | 0.00 | 47 | 1014.1 |
| 20260503110555 | 74 | 190 | 0.0 | 0.9 | 0.00 | 0.00 | 0.00 | 44 | 1012.6 |
| 20260503100107 | 77 | 0 | 0.0 | 0.0 | 0.00 | 0.00 | 0.00 | 40 | 1011.4 |
| 20260503081600 | 78 | 0 | 0.0 | 0.0 | 0.00 | 0.00 | 0.00 | 43 | 1011.5 |
| 20260503081536 | 78 | 190 | 0.0 | 0.0 | 0.00 | 0.00 | 0.00 | 43 | 1012.4 |
| 20260503081036 | 78 | 190 | 0.0 | 0.0 | 0.00 | 0.00 | 0.00 | 44 | 1012.4 |
| 20260503080539 | 78 | 190 | 0.0 | 0.0 | 0.00 | 0.00 | 0.00 | 43 | 1012.4 |
| 20260503080105 | 78 | 0 | 0.0 | 0.0 | 0.00 | 0.00 | 0.00 | 43 | 1011.7 |
| 20260503072532 | 78 | 190 | 0.0 | 0.0 | 0.00 | 0.00 | 0.00 | 45 | 1012.4 |
| 20260503072032 | 78 | 190 | 0.0 | 0.0 | 0.00 | 0.00 | 0.00 | 44 | 1012.3 |
| 20260503071612 | 78 | 0 | 0.0 | 0.0 | 0.00 | 0.00 | 0.00 | 43 | 1011.4 |
| 20260503071531 | 78 | 190 | 0.0 | 0.0 | 0.00 | 0.00 | 0.00 | 44 | 1012.3 |
| 20260503071030 | 78 | 190 | 0.0 | 0.0 | 0.00 | 0.00 | 0.00 | 43 | 1012.3 |
| 20260503070530 | 78 | 190 | 0.0 | 0.0 | 0.00 | 0.00 | 0.00 | 43 | 1012.3 |
| 20260503055026 | 81 | 190 | 0.0 | 0.0 | 0.00 | 0.00 | 0.00 | 40 | 1011.5 |
| 20260503054611 | 81 | 0 | 0.0 | 2.6 | 0.00 | 0.00 | 0.00 | 39 | 1010.7 |
| 20260503054526 | 81 | 190 | 0.0 | 2.6 | 0.00 | 0.00 | 0.00 | 39 | 1011.4 |
| 20260503054025 | 81 | 190 | 0.0 | 2.6 | 0.00 | 0.00 | 0.00 | 39 | 1011.4 |
| 20260503053525 | 81 | 190 | 0.0 | 0.9 | 0.00 | 0.00 | 0.00 | 39 | 1011.3 |
| 20260503053058 | 81 | 0 | 0.0 | 0.0 | 0.00 | 0.00 | 0.00 | 39 | 1010.6 |
| 20260503053025 | 81 | 190 | 0.0 | 0.0 | 0.00 | 0.00 | 0.00 | 39 | 1011.3 |
| 20260503052525 | 81 | 190 | 0.0 | 0.0 | 0.00 | 0.00 | 0.00 | 39 | 1011.3 |
| 20260503052025 | 81 | 190 | 0.0 | 1.7 | 0.00 | 0.00 | 0.00 | 39 | 1011.2 |
| 20260503051558 | 82 | 0 | 0.0 | 2.6 | 0.00 | 0.00 | 0.00 | 38 | 1010.4 |
| 20260503051527 | 82 | 190 | 0.0 | 2.6 | 0.00 | 0.00 | 0.00 | 38 | 1011.1 |
| 20260503051024 | 82 | 190 | 0.0 | 2.6 | 0.00 | 0.00 | 0.00 | 38 | 1011.0 |
| 20260503050523 | 82 | 190 | 0.0 | 2.6 | 0.00 | 0.00 | 0.00 | 38 | 1010.9 |
| 20260503050100 | 82 | 0 | 0.9 | 4.3 | 0.00 | 0.00 | 0.00 | 38 | 1010.1 |
| 20260503050024 | 82 | 190 | 0.0 | 4.3 | 0.00 | 0.00 | 0.00 | 38 | 1010.8 |
| 20260503045524 | 82 | 190 | 0.9 | 4.3 | 0.00 | 0.00 | 0.00 | 38 | 1010.6 |
| 20260503045023 | 82 | 190 | 1.7 | 4.3 | 0.00 | 0.00 | 0.00 | 38 | 1010.6 |
| 20260503044559 | 83 | 190 | 0.0 | 2.6 | 0.00 | 0.00 | 0.00 | 38 | 1009.9 |
| 20260503044527 | 83 | 190 | 0.0 | 2.6 | 0.00 | 0.00 | 0.00 | 38 | 1010.6 |
| 20260503044022 | 83 | 190 | 0.0 | 4.3 | 0.00 | 0.00 | 0.00 | 38 | 1010.7 |
| 20260503043522 | 83 | 190 | 0.0 | 4.3 | 0.00 | 0.00 | 0.00 | 38 | 1010.7 |
| 20260503043059 | 83 | 190 | 0.0 | 5.2 | 0.00 | 0.00 | 0.00 | 37 | 1009.9 |
| 20260503043022 | 83 | 190 | 0.0 | 4.3 | 0.00 | 0.00 | 0.00 | 38 | 1010.6 |
| 20260503042521 | 83 | 190 | 0.9 | 5.2 | 0.00 | 0.00 | 0.00 | 38 | 1010.6 |
| 20260503042022 | 84 | 190 | 0.0 | 5.2 | 0.00 | 0.00 | 0.00 | 38 | 1010.4 |
| 20260503041558 | 84 | 190 | 0.9 | 5.2 | 0.00 | 0.00 | 0.00 | 37 | 1009.7 |
| 20260503041521 | 84 | 190 | 0.0 | 5.2 | 0.00 | 0.00 | 0.00 | 38 | 1010.4 |
| 20260503041020 | 84 | 190 | 0.9 | 7.0 | 0.00 | 0.00 | 0.00 | 38 | 1010.3 |
| 20260503040620 | 84 | 190 | 1.7 | 7.0 | 0.00 | 0.00 | 0.00 | 37 | 1010.2 |
| 20260503040058 | 84 | 190 | 2.6 | 7.8 | 0.00 | 0.00 | 0.00 | 37 | 1009.5 |
| 20260503040026 | 84 | 190 | 2.6 | 6.1 | 0.00 | 0.00 | 0.00 | 37 | 1010.1 |
| 20260503035520 | 84 | 190 | 1.7 | 7.8 | 0.00 | 0.00 | 0.00 | 37 | 1010.0 |
| 20260503035020 | 85 | 190 | 2.6 | 7.8 | 0.00 | 0.00 | 0.00 | 37 | 1009.9 |
| 20260503034558 | 85 | 190 | 2.6 | 5.2 | 0.00 | 0.00 | 0.00 | 36 | 1009.2 |
| 20260503034520 | 85 | 190 | 2.6 | 5.2 | 0.00 | 0.00 | 0.00 | 37 | 1009.7 |
| 20260503034020 | 85 | 190 | 0.9 | 5.2 | 0.00 | 0.00 | 0.00 | 37 | 1009.6 |
| 20260503033518 | 85 | 190 | 0.9 | 5.2 | 0.00 | 0.00 | 0.00 | 37 | 1009.5 |
| 20260503033104 | 86 | 0 | 2.6 | 5.2 | 0.00 | 0.00 | 0.00 | 36 | 1008.8 |
| 20260503033020 | 86 | 190 | 2.6 | 5.2 | 0.00 | 0.00 | 0.00 | 37 | 1009.4 |
| 20260503032518 | 86 | 190 | 0.0 | 3.5 | 0.00 | 0.00 | 0.00 | 37 | 1009.3 |
| 20260503032018 | 86 | 190 | 0.0 | 3.5 | 0.00 | 0.00 | 0.00 | 36 | 1009.3 |
| 20260503031558 | 87 | 190 | 0.0 | 0.0 | 0.00 | 0.00 | 0.00 | 36 | 1008.6 |
| 20260503031519 | 86 | 190 | 0.0 | 0.0 | 0.00 | 0.00 | 0.00 | 36 | 1009.1 |
| 20260503031018 | 87 | 190 | 0.0 | 0.0 | 0.00 | 0.00 | 0.00 | 37 | 1008.9 |
| 20260503030518 | 87 | 190 | 0.0 | 0.0 | 0.00 | 0.00 | 0.00 | 36 | 1008.9 |
| 20260503030057 | 87 | 0 | 0.0 | 2.6 | 0.00 | 0.00 | 0.00 | 36 | 1008.2 |
| 20260503030024 | 87 | 190 | 0.0 | 2.6 | 0.00 | 0.00 | 0.00 | 37 | 1008.8 |
| 20260503025517 | 87 | 190 | 0.0 | 7.0 | 0.00 | 0.00 | 0.00 | 36 | 1008.7 |
| 20260503025019 | 88 | 190 | 0.0 | 7.0 | 0.00 | 0.00 | 0.00 | 35 | 1008.7 |
| 20260503024600 | 88 | 0 | 0.0 | 1.7 | 0.00 | 0.00 | 0.00 | 35 | 1008.1 |
| 20260503024517 | 88 | 190 | 0.0 | 1.7 | 0.00 | 0.00 | 0.00 | 35 | 1008.7 |
| 20260503024018 | 88 | 190 | 0.0 | 3.5 | 0.00 | 0.00 | 0.00 | 35 | 1008.5 |
| 20260503023516 | 89 | 190 | 0.0 | 5.2 | 0.00 | 0.00 | 0.00 | 34 | 1008.4 |
| 20260503023059 | 89 | 190 | 0.9 | 5.2 | 0.00 | 0.00 | 0.00 | 34 | 1007.8 |
| 20260503023035 | 89 | 190 | 0.9 | 5.2 | 0.00 | 0.00 | 0.00 | 34 | 1008.3 |
| 20260503022516 | 89 | 190 | 0.0 | 5.2 | 0.00 | 0.00 | 0.00 | 34 | 1008.2 |
| 20260503022018 | 89 | 190 | 0.0 | 3.5 | 0.00 | 0.00 | 0.00 | 34 | 1008.0 |
| 20260503021558 | 89 | 0 | 0.0 | 3.5 | 0.00 | 0.00 | 0.00 | 33 | 1007.5 |
| 20260503021517 | 89 | 190 | 0.0 | 3.5 | 0.00 | 0.00 | 0.00 | 33 | 1007.9 |
| 20260503021016 | 90 | 190 | 0.0 | 3.5 | 0.00 | 0.00 | 0.00 | 33 | 1007.8 |
| 20260503020516 | 90 | 190 | 0.0 | 2.6 | 0.00 | 0.00 | 0.00 | 33 | 1007.7 |
| 20260503020058 | 90 | 0 | 0.0 | 2.6 | 0.00 | 0.00 | 0.00 | 32 | 1007.2 |
| 20260503020016 | 90 | 190 | 0.0 | 2.6 | 0.00 | 0.00 | 0.00 | 33 | 1007.5 |
| 20260503015516 | 90 | 190 | 0.0 | 0.9 | 0.00 | 0.00 | 0.00 | 32 | 1007.3 |
| 20260503015015 | 91 | 190 | 0.0 | 0.9 | 0.00 | 0.00 | 0.00 | 32 | 1007.3 |
| 20260503014606 | 91 | 0 | 0.0 | 1.7 | 0.00 | 0.00 | 0.00 | 31 | 1006.9 |
| 20260503014515 | 91 | 190 | 0.0 | 1.7 | 0.00 | 0.00 | 0.00 | 32 | 1007.1 |
| 20260503014015 | 91 | 190 | 0.0 | 1.7 | 0.00 | 0.00 | 0.00 | 32 | 1006.9 |
| 20260503013514 | 91 | 190 | 0.0 | 0.0 | 0.00 | 0.00 | 0.00 | 31 | 1006.7 |
| 20260503013058 | 91 | 0 | 0.0 | 2.6 | 0.00 | 0.00 | 0.00 | 31 | 1006.2 |
| 20260503013014 | 91 | 190 | 0.0 | 2.6 | 0.00 | 0.00 | 0.00 | 31 | 1006.5 |
| 20260503012515 | 91 | 190 | 0.0 | 3.5 | 0.00 | 0.00 | 0.00 | 31 | 1006.4 |
| 20260503012013 | 91 | 190 | 0.0 | 3.5 | 0.00 | 0.00 | 0.00 | 31 | 1006.3 |
| 20260503011557 | 92 | 0 | 0.0 | 2.6 | 0.00 | 0.00 | 0.00 | 30 | 1005.9 |
| 20260503011513 | 92 | 190 | 0.0 | 0.0 | 0.00 | 0.00 | 0.00 | 30 | 1006.2 |
| 20260503011013 | 92 | 190 | 0.0 | 4.3 | 0.00 | 0.00 | 0.00 | 30 | 1006.0 |
| 20260503010514 | 92 | 190 | 0.9 | 4.3 | 0.00 | 0.00 | 0.00 | 30 | 1005.9 |
| 20260503010058 | 93 | 0 | 0.9 | 3.5 | 0.00 | 0.00 | 0.00 | 29 | 1005.4 |
| 20260503010019 | 93 | 190 | 0.0 | 3.5 | 0.00 | 0.00 | 0.00 | 29 | 1005.7 |
| 20260503005513 | 93 | 190 | 0.0 | 5.2 | 0.00 | 0.00 | 0.00 | 29 | 1005.7 |
| 20260503005017 | 94 | 190 | 0.0 | 9.6 | 0.00 | 0.00 | 0.00 | 28 | 1005.6 |
| 20260503004559 | 94 | 0 | 4.3 | 9.6 | 0.00 | 0.00 | 0.00 | 27 | 1005.2 |
| 20260503004513 | 94 | 190 | 4.3 | 9.6 | 0.00 | 0.00 | 0.00 | 27 | 1005.6 |
| 20260503004012 | 95 | 190 | 0.9 | 7.8 | 0.00 | 0.00 | 0.00 | 27 | 1005.4 |
| 20260503003511 | 95 | 190 | 2.6 | 9.6 | 0.00 | 0.00 | 0.00 | 27 | 1005.3 |
| 20260503003059 | 95 | 190 | 4.3 | 11.3 | 0.00 | 0.00 | 0.00 | 26 | 1004.9 |
| 20260503003012 | 95 | 190 | 3.5 | 9.6 | 0.00 | 0.00 | 0.00 | 26 | 1005.1 |
| 20260503002516 | 96 | 190 | 2.6 | 11.3 | 0.00 | 0.00 | 0.00 | 26 | 1004.9 |
| 20260503002011 | 96 | 190 | 4.3 | 12.2 | 0.00 | 0.00 | 0.00 | 26 | 1004.9 |
| 20260503001559 | 97 | 190 | 5.2 | 12.2 | 0.00 | 0.00 | 0.00 | 25 | 1004.6 |
| 20260503001511 | 97 | 190 | 5.2 | 12.2 | 0.00 | 0.00 | 0.00 | 25 | 1004.7 |
| 20260503001011 | 97 | 190 | 4.3 | 12.2 | 0.00 | 0.00 | 0.00 | 25 | 1004.7 |
| 20260503000510 | 98 | 190 | 3.5 | 9.6 | 0.00 | 0.00 | 0.00 | 24 | 1004.5 |
| 20260503000016 | 99 | 190 | 4.3 | 8.7 | 0.00 | 0.00 | 0.00 | 24 | 1004.5 |
| 20260502235510 | 99 | 190 | 0.9 | 6.1 | 0.00 | 0.00 | 0.00 | 25 | 1004.4 |
| 20260502235010 | 99 | 190 | 1.7 | 6.1 | 0.00 | 0.00 | 0.00 | 25 | 1004.3 |
| 20260502234558 | 99 | 190 | 0.9 | 4.3 | 0.00 | 0.00 | 0.00 | 24 | 1004.1 |
| 20260502234511 | 99 | 190 | 1.7 | 4.3 | 0.00 | 0.00 | 0.00 | 25 | 1004.3 |
| 20260502234010 | 99 | 190 | 0.0 | 7.8 | 0.00 | 0.00 | 0.00 | 25 | 1004.3 |
| 20260502233509 | 99 | 190 | 0.9 | 7.8 | 0.00 | 0.00 | 0.00 | 25 | 1004.3 |
| 20260502233059 | 99 | 190 | 1.7 | 7.0 | 0.00 | 0.00 | 0.00 | 25 | 1004.0 |
| 20260502233010 | 99 | 190 | 0.9 | 7.0 | 0.00 | 0.00 | 0.00 | 25 | 1004.3 |
| 20260502232509 | 99 | 190 | 1.7 | 6.1 | 0.00 | 0.00 | 0.00 | 25 | 1004.3 |
| 20260502232009 | 99 | 190 | 2.6 | 8.7 | 0.00 | 0.00 | 0.00 | 25 | 1004.2 |
| 20260502231604 | 99 | 190 | 3.5 | 7.8 | 0.00 | 0.00 | 0.00 | 24 | 1004.0 |
| 20260502231513 | 99 | 190 | 3.5 | 7.8 | 0.00 | 0.00 | 0.00 | 25 | 1004.2 |
| 20260502231009 | 100 | 190 | 1.7 | 6.1 | 0.00 | 0.00 | 0.00 | 25 | 1004.3 |
| 20260502230509 | 100 | 190 | 1.7 | 5.2 | 0.00 | 0.00 | 0.00 | 25 | 1004.2 |
| 20260502230104 | 100 | 0 | 2.6 | 8.7 | 0.00 | 0.00 | 0.00 | 24 | 1004.0 |
| 20260502230010 | 100 | 190 | 1.7 | 6.1 | 0.00 | 0.00 | 0.00 | 25 | 1004.2 |
| 20260502225510 | 100 | 190 | 0.0 | 8.7 | 0.00 | 0.00 | 0.00 | 25 | 1004.3 |
| 20260502225008 | 100 | 190 | 3.5 | 8.7 | 0.00 | 0.00 | 0.00 | 24 | 1004.3 |